Weather History for KLEW - December, 2012

Change the Weather History Date:

Sunday, December 30, 2012

  Actual Average Record
Temperature  
Mean Temperature 19 °F -  
Max Temperature 26 °F 29 °F 48 °F (2003)
Min Temperature 12 °F 13 °F 1 °F (2013)
Degree Days  
Heating Degree Days 46    
Moisture  
Dew Point 11 °F    
Average Humidity 67    
Maximum Humidity 86    
Minimum Humidity 53    
Precipitation  
Precipitation 0.00 in - - ()
Sea Level Pressure  
Sea Level Pressure 29.58 in    
Wind  
Wind Speed 13 mph (NW)    
Max Wind Speed 22 mph    
Max Gust Speed 33 mph    
Visibility 8 miles    
Events      
Averages and records for this station are not official NWS values.
T = Trace of Precipitation, MM = Missing Value Source: NWS Daily Summary

Daily Weather History Graph

Daily Weather History Graph

Search for Another Location

Airport or City:

Trip Planner

Search our weather history database for the weather conditions in past years. The results will help you decide how hot, cold, wet, or windy it might be!

Date:

Astronomy

Dec. 30, 2012 Rise Set
Actual Time 7:15 AM EST 4:12 PM EST
Civil Twilight 6:42 AM EST 4:45 PM EST
Nautical Twilight 6:06 AM EST 5:21 PM EST
Astronomical Twilight 5:31 AM EST 5:56 PM EST
Moon 6:45 PM EST (12/30) 8:18 AM EST (12/30)
Length of Visible Light 10h 02m
Length of Day
8h 56m
Waning Gibbous, 95% of the Moon is Illuminated
Dec 30
Waning Gibbous
Jan 4
Last Quarter
Jan 11
New
Jan 18
First Quarter
Jan 26
Full

Hourly Weather History & Observations

Time (EST) Temp. Windchill Dew Point Humidity Pressure Visibility Wind Dir Wind Speed Gust Speed Precip Events Conditions
12:15 AM 23.0 °F 11.1 °F 19.4 °F 86% 29.46 in 2.0 mi North 12.7 mph - N/A   Overcast
12:35 AM 23.0 °F 11.1 °F 19.4 °F 86% 29.46 in 2.5 mi North 12.7 mph 20.7 mph N/A   Overcast
12:55 AM 23.0 °F 10.1 °F 19.4 °F 86% 29.44 in 3.0 mi North 15.0 mph - N/A   Overcast
1:35 AM 23.0 °F 10.6 °F 17.6 °F 80% 29.43 in 3.0 mi North 13.8 mph - N/A   Overcast
1:55 AM 23.0 °F 11.1 °F 19.4 °F 86% 29.43 in 5.0 mi NNW 12.7 mph - N/A   Overcast
2:15 AM 24.8 °F 13.4 °F 19.4 °F 80% 29.43 in 7.0 mi North 12.7 mph 18.4 mph N/A   Overcast
2:35 AM 24.8 °F 13.4 °F 19.4 °F 80% 29.42 in 9.0 mi North 12.7 mph - N/A   Overcast
2:55 AM 24.8 °F 14.0 °F 19.4 °F 80% 29.42 in 10.0 mi North 11.5 mph - N/A   Overcast
3:15 AM 24.8 °F 14.6 °F 19.4 °F 80% 29.41 in 8.0 mi North 10.4 mph - N/A   Overcast
3:35 AM 24.8 °F 15.3 °F 21.2 °F 86% 29.41 in 5.0 mi North 9.2 mph - N/A   Overcast
3:55 AM 24.8 °F 16.9 °F 21.2 °F 86% 29.41 in 7.0 mi NNW 6.9 mph - N/A   Overcast
4:15 AM 24.8 °F 17.9 °F 21.2 °F 86% 29.41 in 5.0 mi NNW 5.8 mph - N/A   Overcast
4:35 AM 24.8 °F 16.9 °F 21.2 °F 86% 29.41 in 5.0 mi NW 6.9 mph - N/A   Overcast
4:55 AM 24.8 °F 16.1 °F 21.2 °F 86% 29.41 in 4.0 mi NNW 8.1 mph - N/A   Overcast
5:15 AM 24.8 °F 16.9 °F 21.2 °F 86% 29.42 in 3.0 mi NNW 6.9 mph - N/A   Overcast
5:35 AM 24.8 °F 16.1 °F 21.2 °F 86% 29.43 in 4.0 mi North 8.1 mph - N/A   Overcast
5:55 AM 24.8 °F 16.1 °F 21.2 °F 86% 29.44 in 4.0 mi NNW 8.1 mph - N/A   Overcast
6:15 AM 24.8 °F 14.6 °F 21.2 °F 86% 29.45 in 4.0 mi NNW 10.4 mph - N/A   Overcast
6:35 AM 24.8 °F 16.9 °F 21.2 °F 86% 29.46 in 5.0 mi NNW 6.9 mph - N/A   Overcast
6:55 AM 26.6 °F 14.7 °F 21.2 °F 80% 29.46 in 5.0 mi NW 15.0 mph - N/A   Overcast
7:15 AM 24.8 °F 12.9 °F 19.4 °F 80% 29.47 in 9.0 mi NW 13.8 mph 21.9 mph N/A   Overcast
7:35 AM 24.8 °F 12.4 °F 17.6 °F 74% 29.48 in 10.0 mi NW 15.0 mph 23.0 mph N/A   Mostly Cloudy
7:55 AM 24.8 °F 11.5 °F 15.8 °F 69% 29.48 in 10.0 mi NNW 17.3 mph 27.6 mph N/A   Overcast
8:15 AM 24.8 °F 11.9 °F 15.8 °F 69% 29.49 in 10.0 mi NNW 16.1 mph 19.6 mph N/A   Overcast
8:35 AM 24.8 °F 14.0 °F 14.0 °F 64% 29.50 in 10.0 mi NW 11.5 mph 25.3 mph N/A   Overcast
8:55 AM 23.0 °F 10.1 °F 14.0 °F 68% 29.51 in 10.0 mi NW 15.0 mph 20.7 mph N/A   Overcast
9:15 AM 23.0 °F 9.2 °F 12.2 °F 63% 29.52 in 10.0 mi NW 17.3 mph 27.6 mph N/A   Overcast
9:35 AM 23.0 °F 9.6 °F 12.2 °F 63% 29.53 in 10.0 mi NNW 16.1 mph 20.7 mph N/A   Overcast
9:55 AM 23.0 °F 10.1 °F 12.2 °F 63% 29.54 in 4.0 mi NW 15.0 mph 24.2 mph N/A   Overcast
10:15 AM 23.0 °F 9.2 °F 12.2 °F 63% 29.54 in 7.0 mi NW 17.3 mph 26.5 mph N/A   Overcast
10:35 AM 23.0 °F 8.7 °F 12.2 °F 63% 29.54 in 1.2 mi NW 18.4 mph 29.9 mph N/A   Overcast
10:55 AM 23.0 °F 9.6 °F 10.4 °F 59% 29.54 in 3.0 mi NW 16.1 mph 33.4 mph N/A   Overcast
11:15 AM 23.0 °F 10.6 °F 10.4 °F 59% 29.54 in 0.8 mi NW 13.8 mph 28.8 mph N/A   Overcast
11:35 AM 23.0 °F 9.2 °F 8.6 °F 54% 29.54 in 10.0 mi NW 17.3 mph 27.6 mph N/A   Overcast
11:55 AM 23.0 °F 9.6 °F 10.4 °F 59% 29.54 in 10.0 mi NW 16.1 mph 26.5 mph N/A   Overcast
12:15 PM 23.0 °F 11.1 °F 10.4 °F 59% 29.55 in 10.0 mi WNW 12.7 mph 23.0 mph N/A   Overcast
12:35 PM 23.0 °F 11.1 °F 10.4 °F 59% 29.54 in 10.0 mi WNW 12.7 mph 20.7 mph N/A   Overcast
12:55 PM 23.0 °F 9.6 °F 10.4 °F 59% 29.54 in 10.0 mi WNW 16.1 mph 21.9 mph N/A   Overcast
1:15 PM 23.0 °F 8.0 °F 10.4 °F 59% 29.55 in 10.0 mi NW 20.7 mph 26.5 mph N/A   Overcast
1:35 PM 23.0 °F 9.6 °F 10.4 °F 59% 29.55 in 9.0 mi WNW 16.1 mph 25.3 mph N/A   Overcast
1:55 PM 21.2 °F 8.3 °F 8.6 °F 58% 29.57 in 10.0 mi NW 13.8 mph 24.2 mph N/A   Mostly Cloudy
2:15 PM 21.2 °F 7.3 °F 8.6 °F 58% 29.58 in 7.0 mi NW 16.1 mph 27.6 mph N/A   Scattered Clouds
2:35 PM 21.2 °F 6.8 °F 8.6 °F 58% 29.59 in 9.0 mi NW 17.3 mph 24.2 mph N/A   Scattered Clouds
2:55 PM 19.4 °F 2.8 °F 6.8 °F 58% 29.60 in 5.0 mi NW 21.9 mph 26.5 mph N/A   Scattered Clouds
3:15 PM 19.4 °F 5.0 °F 6.8 °F 58% 29.61 in 5.0 mi NW 16.1 mph 26.5 mph N/A   Scattered Clouds
3:35 PM 19.4 °F 7.9 °F 6.8 °F 58% 29.63 in 10.0 mi WNW 10.4 mph 20.7 mph N/A   Partly Cloudy
3:55 PM 17.6 °F 2.2 °F 5.0 °F 58% 29.64 in 7.0 mi NW 17.3 mph 27.6 mph N/A   Clear
4:15 PM 17.6 °F 4.3 °F 5.0 °F 58% 29.65 in 9.0 mi NW 12.7 mph 25.3 mph N/A   Scattered Clouds
4:35 PM 17.6 °F 5.0 °F 6.8 °F 63% 29.66 in 10.0 mi NW 11.5 mph 20.7 mph N/A   Mostly Cloudy
4:55 PM 17.6 °F 3.2 °F 5.0 °F 58% 29.67 in 10.0 mi NW 15.0 mph 19.6 mph N/A   Scattered Clouds
5:15 PM 15.8 °F 2.1 °F 3.2 °F 58% 29.68 in 10.0 mi WNW 12.7 mph 21.9 mph N/A   Partly Cloudy
5:35 PM 15.8 °F 2.1 °F 1.4 °F 53% 29.69 in 10.0 mi WNW 12.7 mph 20.7 mph N/A   Clear
5:55 PM 15.8 °F 1.4 °F 1.4 °F 53% 29.70 in 10.0 mi WNW 13.8 mph 20.7 mph N/A   Clear
6:15 PM 15.8 °F 0.9 °F 1.4 °F 53% 29.72 in 10.0 mi NW 15.0 mph 21.9 mph N/A   Clear
6:35 PM 14.0 °F 0.5 °F 1.4 °F 57% 29.73 in 10.0 mi WNW 11.5 mph 23.0 mph N/A   Clear
6:55 PM 14.0 °F -0.2 °F 1.4 °F 57% 29.74 in 10.0 mi WNW 12.7 mph - N/A   Clear
7:15 PM 14.0 °F -0.8 °F 1.4 °F 57% 29.74 in 10.0 mi WNW 13.8 mph 19.6 mph N/A   Clear
7:35 PM 14.0 °F -2.0 °F 1.4 °F 57% 29.75 in 9.0 mi WNW 16.1 mph 24.2 mph N/A   Clear
7:55 PM 12.2 °F -1.8 °F 1.4 °F 62% 29.76 in 10.0 mi WNW 11.5 mph 24.2 mph N/A   Clear
8:15 PM 12.2 °F -3.1 °F -0.4 °F 57% 29.76 in 10.0 mi NW 13.8 mph 20.7 mph N/A   Clear
8:35 PM 12.2 °F -4.3 °F -0.4 °F 57% 29.77 in 10.0 mi NW 16.1 mph 26.5 mph N/A   Clear
8:56 PM 12.2 °F -4.3 °F 1.4 °F 62% 29.79 in 10.0 mi NW 16.1 mph 24.2 mph N/A   Clear
9:15 PM 12.2 °F -4.3 °F -0.4 °F 57% 29.79 in 10.0 mi NW 16.1 mph 23.0 mph N/A   Clear
9:35 PM 14.0 °F -2.5 °F 1.4 °F 57% 29.78 in 10.0 mi NW 17.3 mph 29.9 mph N/A   Clear
9:55 PM 14.0 °F -2.0 °F 1.4 °F 57% 29.78 in 10.0 mi NW 16.1 mph 27.6 mph N/A   Clear
10:15 PM 14.0 °F -3.4 °F 1.4 °F 57% 29.78 in 10.0 mi NW 19.6 mph 32.2 mph N/A   Clear
10:35 PM 14.0 °F -2.0 °F 1.4 °F 57% 29.79 in 10.0 mi NW 16.1 mph 28.8 mph N/A   Clear
10:55 PM 14.0 °F -2.5 °F 1.4 °F 57% 29.79 in 10.0 mi NW 17.3 mph 24.2 mph N/A   Clear
11:15 PM 14.0 °F -2.5 °F 1.4 °F 57% 29.81 in 10.0 mi NW 17.3 mph 25.3 mph N/A   Clear
11:35 PM 14.0 °F 0.5 °F 1.4 °F 57% 29.82 in 10.0 mi NW 11.5 mph 27.6 mph N/A   Clear
11:55 PM 14.0 °F -0.8 °F 1.4 °F 57% 29.82 in 10.0 mi NNW 13.8 mph 20.7 mph N/A   Clear